Time,TemperatureF,DewpointF,PressureIn,WindDirection,WindDirectionDegrees,WindSpeedMPH,WindSpeedGustMPH,Humidity,HourlyPrecipIn,Conditions,Clouds,dailyrainin,SoftwareType,DateUTC
2015-07-07 00:04:00,66.6,59.0,29.88,NNW,348,0.0,2.2,76,0.00,,---,0.00,cosweather0.1e,2015-07-07 07:04:00,
2015-07-07 00:09:00,66.7,59.0,29.88,NW,310,0.0,3.1,76,0.00,,---,0.00,cosweather0.1e,2015-07-07 07:09:00,
2015-07-07 00:14:00,66.6,59.0,29.88,West,275,0.0,0.0,76,0.00,,---,0.00,cosweather0.1e,2015-07-07 07:14:00,
2015-07-07 00:19:00,66.6,59.0,29.88,West,271,2.7,2.7,76,0.00,,---,0.00,cosweather0.1e,2015-07-07 07:19:00,
2015-07-07 00:24:00,66.6,59.0,29.88,NW,319,0.0,2.2,76,0.00,,---,0.00,cosweather0.1e,2015-07-07 07:24:00,
2015-07-07 00:29:00,66.6,59.0,29.88,NNW,332,0.0,3.1,77,0.00,,---,0.00,cosweather0.1e,2015-07-07 07:29:00,
2015-07-07 00:34:00,66.6,59.0,29.88,South,173,0.0,2.2,77,0.00,,---,0.00,cosweather0.1e,2015-07-07 07:34:00,
2015-07-07 00:39:00,66.6,59.0,29.88,NNW,336,2.2,3.1,77,0.00,,---,0.00,cosweather0.1e,2015-07-07 07:39:00,
2015-07-07 00:44:00,66.6,59.0,29.84,West,280,2.2,3.6,77,0.00,,---,0.00,cosweather0.1e,2015-07-07 07:44:00,
2015-07-07 00:49:00,66.6,59.0,29.84,SW,227,0.0,0.0,77,0.00,,---,0.00,cosweather0.1e,2015-07-07 07:49:00,
2015-07-07 00:54:00,66.4,59.0,29.84,WSW,253,2.2,2.7,77,0.00,,---,0.00,cosweather0.1e,2015-07-07 07:54:00,
2015-07-07 00:59:00,66.4,59.0,29.84,West,260,0.0,2.2,77,0.00,,---,0.00,cosweather0.1e,2015-07-07 07:59:00,
2015-07-07 01:05:00,66.2,59.0,29.84,SSE,164,0.0,2.2,77,0.00,,---,0.00,cosweather0.1e,2015-07-07 08:05:00,
2015-07-07 01:10:00,66.2,59.0,29.84,WNW,292,2.2,2.7,78,0.00,,---,0.00,cosweather0.1e,2015-07-07 08:10:00,
2015-07-07 01:15:00,66.2,59.0,29.84,SW,215,0.0,2.2,78,0.00,,---,0.00,cosweather0.1e,2015-07-07 08:15:00,
2015-07-07 01:20:00,66.0,59.0,29.84,NW,320,0.0,2.2,79,0.00,,---,0.00,cosweather0.1e,2015-07-07 08:20:00,
2015-07-07 01:25:00,66.0,59.0,29.84,NNW,333,0.0,0.0,79,0.00,,---,0.00,cosweather0.1e,2015-07-07 08:25:00,
2015-07-07 01:30:00,66.2,59.0,29.84,NW,312,0.0,2.2,79,0.00,,---,0.00,cosweather0.1e,2015-07-07 08:30:00,
2015-07-07 01:35:00,66.2,59.0,29.84,WNW,297,2.2,3.6,79,0.00,,---,0.00,cosweather0.1e,2015-07-07 08:35:00,
2015-07-07 01:40:00,66.0,59.0,29.84,WSW,238,0.0,0.0,79,0.00,,---,0.00,cosweather0.1e,2015-07-07 08:40:00,
2015-07-07 01:45:00,66.0,59.0,29.84,WNW,299,2.2,0.0,79,0.00,,---,0.00,cosweather0.1e,2015-07-07 08:45:00,
2015-07-07 01:50:00,66.0,59.0,29.84,WSW,238,0.0,0.0,79,0.00,,---,0.00,cosweather0.1e,2015-07-07 08:50:00,
2015-07-07 01:55:00,66.0,59.0,29.84,NW,308,2.2,3.1,79,0.00,,---,0.00,cosweather0.1e,2015-07-07 08:55:00,
2015-07-07 02:00:00,65.8,59.0,29.84,NNW,329,2.2,2.2,80,0.00,,---,0.00,cosweather0.1e,2015-07-07 09:00:00,
2015-07-07 02:05:00,65.8,59.0,29.84,SSW,212,0.0,0.0,80,0.00,,---,0.00,cosweather0.1e,2015-07-07 09:05:00,
2015-07-07 02:10:00,66.0,59.0,29.84,NNW,338,2.2,3.1,80,0.00,,---,0.00,cosweather0.1e,2015-07-07 09:10:00,
2015-07-07 02:15:00,65.8,59.0,29.84,NNW,339,2.7,4.0,80,0.00,,---,0.00,cosweather0.1e,2015-07-07 09:15:00,
2015-07-07 02:20:00,65.8,59.0,29.84,North,357,2.7,2.7,80,0.00,,---,0.00,cosweather0.1e,2015-07-07 09:20:00,
2015-07-07 02:25:00,65.8,59.0,29.84,NNE,15,0.0,0.0,80,0.00,,---,0.00,cosweather0.1e,2015-07-07 09:25:00,
2015-07-07 02:30:00,65.8,59.0,29.84,West,266,2.2,2.7,80,0.00,,---,0.00,cosweather0.1e,2015-07-07 09:30:00,
2015-07-07 02:35:00,65.8,59.0,29.84,WNW,287,2.2,2.2,80,0.00,,---,0.00,cosweather0.1e,2015-07-07 09:35:00,
2015-07-07 02:40:00,65.7,60.8,29.84,NW,307,2.2,2.2,81,0.00,,---,0.00,cosweather0.1e,2015-07-07 09:40:00,
2015-07-07 02:45:00,65.7,60.8,29.84,WNW,284,2.2,0.0,81,0.00,,---,0.00,cosweather0.1e,2015-07-07 09:45:00,
2015-07-07 02:50:00,65.7,60.8,29.84,NW,307,0.0,0.0,81,0.00,,---,0.00,cosweather0.1e,2015-07-07 09:50:00,
2015-07-07 02:55:00,65.7,60.8,29.84,WNW,295,0.0,2.7,81,0.00,,---,0.00,cosweather0.1e,2015-07-07 09:55:00,
2015-07-07 03:00:00,65.8,60.8,29.84,SW,232,0.0,2.2,81,0.00,,---,0.00,cosweather0.1e,2015-07-07 10:00:00,
2015-07-07 03:05:00,65.8,60.8,29.84,West,269,0.0,0.0,81,0.00,,---,0.00,cosweather0.1e,2015-07-07 10:05:00,
2015-07-07 03:10:00,65.7,60.8,29.84,NW,326,0.0,0.0,81,0.00,,---,0.00,cosweather0.1e,2015-07-07 10:10:00,
2015-07-07 03:15:00,65.8,60.8,29.84,SW,228,0.0,0.0,81,0.00,,---,0.00,cosweather0.1e,2015-07-07 10:15:00,
2015-07-07 03:20:00,65.8,60.8,29.84,WSW,241,0.0,2.2,81,0.00,,---,0.00,cosweather0.1e,2015-07-07 10:20:00,
2015-07-07 03:25:00,65.8,59.0,29.84,NW,320,0.0,0.0,80,0.00,,---,0.00,cosweather0.1e,2015-07-07 10:25:00,
2015-07-07 03:30:00,65.7,59.0,29.84,WNW,295,0.0,0.0,80,0.00,,---,0.00,cosweather0.1e,2015-07-07 10:30:00,
2015-07-07 03:35:00,65.7,59.0,29.84,West,277,2.2,2.2,80,0.00,,---,0.00,cosweather0.1e,2015-07-07 10:35:00,
2015-07-07 03:40:00,65.7,59.0,29.84,NW,315,0.0,2.2,80,0.00,,---,0.00,cosweather0.1e,2015-07-07 10:40:00,
2015-07-07 03:45:00,65.7,59.0,29.84,SE,136,0.0,0.0,80,0.00,,---,0.00,cosweather0.1e,2015-07-07 10:45:00,
2015-07-07 03:50:00,65.7,59.0,29.84,NW,316,0.0,0.0,80,0.00,,---,0.00,cosweather0.1e,2015-07-07 10:50:00,
2015-07-07 03:55:00,65.7,59.0,29.84,NW,317,0.0,0.0,80,0.00,,---,0.00,cosweather0.1e,2015-07-07 10:55:00,
2015-07-07 04:00:00,65.7,59.0,29.84,NW,324,0.0,2.7,80,0.00,,---,0.00,cosweather0.1e,2015-07-07 11:00:00,
2015-07-07 04:05:00,65.7,59.0,29.84,NW,324,0.0,0.0,80,0.00,,---,0.00,cosweather0.1e,2015-07-07 11:05:00,
2015-07-07 04:10:00,65.7,59.0,29.84,NW,320,0.0,0.0,80,0.00,,---,0.00,cosweather0.1e,2015-07-07 11:10:00,
2015-07-07 04:15:00,65.7,59.0,29.84,WNW,303,0.0,2.2,80,0.00,,---,0.00,cosweather0.1e,2015-07-07 11:15:00,
2015-07-07 04:20:00,65.7,59.0,29.84,NNW,338,0.0,0.0,80,0.00,,---,0.00,cosweather0.1e,2015-07-07 11:20:00,
2015-07-07 04:25:00,65.7,59.0,29.84,NE,36,0.0,2.2,80,0.00,,---,0.00,cosweather0.1e,2015-07-07 11:25:00,
2015-07-07 04:30:00,65.7,59.0,29.84,WNW,299,0.0,2.2,80,0.00,,---,0.00,cosweather0.1e,2015-07-07 11:30:00,
2015-07-07 04:35:00,65.7,59.0,29.84,West,275,2.2,2.7,80,0.00,,---,0.00,cosweather0.1e,2015-07-07 11:35:00,
2015-07-07 04:41:00,65.7,59.0,29.84,NW,315,0.0,2.7,80,0.00,,---,0.00,cosweather0.1e,2015-07-07 11:41:00,
2015-07-07 04:46:00,65.5,59.0,29.84,WNW,290,0.0,2.2,80,0.00,,---,0.00,cosweather0.1e,2015-07-07 11:46:00,
2015-07-07 04:51:00,65.5,59.0,29.84,NW,321,0.0,0.0,80,0.00,,---,0.00,cosweather0.1e,2015-07-07 11:51:00,
2015-07-07 04:56:00,65.5,59.0,29.84,NW,308,0.0,0.0,80,0.00,,---,0.00,cosweather0.1e,2015-07-07 11:56:00,
2015-07-07 05:01:00,65.5,59.0,29.84,SSW,192,0.0,0.0,80,0.00,,---,0.00,cosweather0.1e,2015-07-07 12:01:00,
2015-07-07 05:06:00,65.7,59.0,29.84,NNW,327,0.0,2.7,80,0.00,,---,0.00,cosweather0.1e,2015-07-07 12:06:00,
2015-07-07 05:11:00,65.5,59.0,29.84,WNW,301,0.0,3.1,80,0.00,,---,0.00,cosweather0.1e,2015-07-07 12:11:00,
2015-07-07 05:16:00,65.5,59.0,29.84,NW,325,0.0,0.0,80,0.00,,---,0.00,cosweather0.1e,2015-07-07 12:16:00,
2015-07-07 05:21:00,65.3,59.0,29.84,West,277,0.0,2.7,80,0.00,,---,0.00,cosweather0.1e,2015-07-07 12:21:00,
2015-07-07 05:26:00,65.3,59.0,29.84,WNW,299,0.0,2.7,80,0.00,,---,0.00,cosweather0.1e,2015-07-07 12:26:00,
2015-07-07 05:37:00,65.1,57.2,29.84,WNW,287,0.0,0.0,80,0.00,,---,0.00,cosweather0.1e,2015-07-07 12:37:00,
2015-07-07 05:42:00,65.1,59.0,29.84,NW,324,0.0,4.0,81,0.00,,---,0.00,cosweather0.1e,2015-07-07 12:42:00,
2015-07-07 05:47:00,65.1,59.0,29.84,NW,308,0.0,0.0,81,0.00,,---,0.00,cosweather0.1e,2015-07-07 12:47:00,
2015-07-07 05:52:00,65.1,59.0,29.84,NW,317,2.2,2.7,81,0.00,,---,0.00,cosweather0.1e,2015-07-07 12:52:00,
2015-07-07 05:57:00,65.1,59.0,29.84,NW,312,0.0,2.2,81,0.00,,---,0.00,cosweather0.1e,2015-07-07 12:57:00,
2015-07-07 06:02:00,65.1,59.0,29.84,NW,312,0.0,3.1,81,0.00,,---,0.00,cosweather0.1e,2015-07-07 13:02:00,
2015-07-07 06:07:00,65.1,59.0,29.84,WNW,298,0.0,0.0,81,0.00,,---,0.00,cosweather0.1e,2015-07-07 13:07:00,
2015-07-07 06:12:00,65.1,59.0,29.84,NNW,333,0.0,0.0,81,0.00,,---,0.00,cosweather0.1e,2015-07-07 13:12:00,
2015-07-07 06:17:00,65.3,60.8,29.84,NNW,327,0.0,0.0,81,0.00,,---,0.00,cosweather0.1e,2015-07-07 13:17:00,
2015-07-07 06:22:00,65.3,60.8,29.84,South,184,0.0,0.0,81,0.00,,---,0.00,cosweather0.1e,2015-07-07 13:22:00,
2015-07-07 06:27:00,65.3,59.0,29.84,WNW,285,0.0,0.0,80,0.00,,---,0.00,cosweather0.1e,2015-07-07 13:27:00,
2015-07-07 06:32:00,65.3,59.0,29.84,WNW,297,0.0,0.0,80,0.00,,---,0.00,cosweather0.1e,2015-07-07 13:32:00,
2015-07-07 06:37:00,65.3,59.0,29.84,NW,317,0.0,0.0,80,0.00,,---,0.00,cosweather0.1e,2015-07-07 13:37:00,
2015-07-07 06:42:00,65.5,59.0,29.84,NW,307,0.0,0.0,80,0.00,,---,0.00,cosweather0.1e,2015-07-07 13:42:00,
2015-07-07 06:47:00,65.5,59.0,29.84,SE,135,0.0,0.0,80,0.00,,---,0.00,cosweather0.1e,2015-07-07 13:47:00,
2015-07-07 06:52:00,65.5,59.0,29.84,SW,228,0.0,0.0,80,0.00,,---,0.00,cosweather0.1e,2015-07-07 13:52:00,
2015-07-07 06:57:00,65.5,59.0,29.84,NW,315,0.0,0.0,80,0.00,,---,0.00,cosweather0.1e,2015-07-07 13:57:00,
2015-07-07 07:02:00,65.5,59.0,29.84,WSW,255,0.0,0.0,80,0.00,,---,0.00,cosweather0.1e,2015-07-07 14:02:00,
2015-07-07 07:07:00,65.5,59.0,29.84,North,353,0.0,0.0,80,0.00,,---,0.00,cosweather0.1e,2015-07-07 14:07:00,
2015-07-07 07:12:00,65.5,59.0,29.84,NW,322,2.7,2.7,80,0.00,,---,0.00,cosweather0.1e,2015-07-07 14:12:00,
2015-07-07 07:17:00,65.5,59.0,29.88,West,276,0.0,0.0,80,0.00,,---,0.00,cosweather0.1e,2015-07-07 14:17:00,
2015-07-07 07:22:00,65.5,59.0,29.88,WNW,296,2.2,2.7,79,0.00,,---,0.00,cosweather0.1e,2015-07-07 14:22:00,
2015-07-07 07:27:00,65.5,59.0,29.88,NW,307,0.0,2.7,79,0.00,,---,0.00,cosweather0.1e,2015-07-07 14:27:00,
2015-07-07 07:32:00,65.7,59.0,29.88,West,259,0.0,2.2,79,0.00,,---,0.00,cosweather0.1e,2015-07-07 14:32:00,
2015-07-07 07:37:00,65.7,59.0,29.88,WSW,240,0.0,2.2,79,0.00,,---,0.00,cosweather0.1e,2015-07-07 14:37:00,
2015-07-07 07:43:00,65.8,59.0,29.88,SW,222,0.0,2.2,79,0.00,,---,0.00,cosweather0.1e,2015-07-07 14:43:00,
2015-07-07 07:48:00,65.8,59.0,29.88,WNW,290,0.0,2.2,79,0.00,,---,0.00,cosweather0.1e,2015-07-07 14:48:00,
2015-07-07 07:53:00,65.8,59.0,29.88,WNW,285,0.0,2.2,79,0.00,,---,0.00,cosweather0.1e,2015-07-07 14:53:00,
2015-07-07 07:58:00,66.0,59.0,29.88,South,189,0.0,2.2,79,0.00,,---,0.00,cosweather0.1e,2015-07-07 14:58:00,
2015-07-07 08:03:00,66.0,59.0,29.88,WSW,249,0.0,3.1,79,0.00,,---,0.00,cosweather0.1e,2015-07-07 15:03:00,
2015-07-07 08:08:00,66.0,59.0,29.88,NNW,336,0.0,2.2,79,0.00,,---,0.00,cosweather0.1e,2015-07-07 15:08:00,
2015-07-07 08:13:00,66.0,59.0,29.88,West,276,0.0,0.0,79,0.00,,---,0.00,cosweather0.1e,2015-07-07 15:13:00,
2015-07-07 08:18:00,66.0,59.0,29.88,West,276,0.0,0.0,78,0.00,,---,0.00,cosweather0.1e,2015-07-07 15:18:00,
2015-07-07 08:23:00,66.2,59.0,29.88,NNW,332,0.0,2.2,78,0.00,,---,0.00,cosweather0.1e,2015-07-07 15:23:00,
2015-07-07 08:28:00,66.2,59.0,29.88,NNW,342,0.0,2.7,78,0.00,,---,0.00,cosweather0.1e,2015-07-07 15:28:00,
2015-07-07 08:33:00,66.2,59.0,29.88,NW,316,0.0,2.2,77,0.00,,---,0.00,cosweather0.1e,2015-07-07 15:33:00,
2015-07-07 08:38:00,66.2,59.0,29.88,NNW,335,0.0,2.7,77,0.00,,---,0.00,cosweather0.1e,2015-07-07 15:38:00,
2015-07-07 08:43:00,66.2,59.0,29.88,North,7,0.0,4.0,77,0.00,,---,0.00,cosweather0.1e,2015-07-07 15:43:00,
2015-07-07 08:48:00,66.2,59.0,29.88,WNW,283,2.2,2.7,77,0.00,,---,0.00,cosweather0.1e,2015-07-07 15:48:00,
2015-07-07 08:53:00,66.4,59.0,29.88,NNW,330,0.0,3.1,77,0.00,,---,0.00,cosweather0.1e,2015-07-07 15:53:00,
2015-07-07 08:58:00,66.6,59.0,29.88,WNW,289,0.0,2.2,76,0.00,,---,0.00,cosweather0.1e,2015-07-07 15:58:00,
2015-07-07 09:04:00,66.6,57.2,29.88,South,176,0.0,0.0,75,0.00,,---,0.00,cosweather0.1e,2015-07-07 16:04:00,
2015-07-07 09:09:00,66.7,57.2,29.88,WNW,285,0.0,0.0,75,0.00,,---,0.00,cosweather0.1e,2015-07-07 16:09:00,
2015-07-07 09:14:00,66.9,57.2,29.88,WSW,249,0.0,2.7,75,0.00,,---,0.00,cosweather0.1e,2015-07-07 16:14:00,
2015-07-07 09:19:00,66.9,57.2,29.88,SSE,148,0.0,0.0,74,0.00,,---,0.00,cosweather0.1e,2015-07-07 16:19:00,
2015-07-07 09:24:00,67.1,59.0,29.88,WSW,246,2.2,2.2,74,0.00,,---,0.00,cosweather0.1e,2015-07-07 16:24:00,
2015-07-07 09:29:00,67.1,59.0,29.88,NNW,341,0.0,2.7,73,0.00,,---,0.00,cosweather0.1e,2015-07-07 16:29:00,
2015-07-07 09:34:00,67.3,59.0,29.84,WNW,289,2.2,0.0,72,0.00,,---,0.00,cosweather0.1e,2015-07-07 16:34:00,
2015-07-07 09:39:00,67.5,59.0,29.84,NNW,340,0.0,0.0,72,0.00,,---,0.00,cosweather0.1e,2015-07-07 16:39:00,
2015-07-07 09:44:00,67.6,59.0,29.84,WNW,297,0.0,0.0,72,0.00,,---,0.00,cosweather0.1e,2015-07-07 16:44:00,
2015-07-07 09:49:00,67.8,59.0,29.84,WNW,286,2.2,2.7,72,0.00,,---,0.00,cosweather0.1e,2015-07-07 16:49:00,
2015-07-07 09:59:00,68.0,59.0,29.84,WSW,248,0.0,0.0,71,0.00,,---,0.00,cosweather0.1e,2015-07-07 16:59:00,
2015-07-07 10:04:00,68.0,59.0,29.84,SSW,210,0.0,0.0,71,0.00,,---,0.00,cosweather0.1e,2015-07-07 17:04:00,
2015-07-07 10:09:00,68.0,59.0,29.84,West,264,0.0,0.0,71,0.00,,---,0.00,cosweather0.1e,2015-07-07 17:09:00,
2015-07-07 10:14:00,68.2,59.0,29.84,WNW,299,0.0,3.6,71,0.00,,---,0.00,cosweather0.1e,2015-07-07 17:14:00,
2015-07-07 10:19:00,68.4,59.0,29.84,SSW,202,2.2,3.1,71,0.00,,---,0.00,cosweather0.1e,2015-07-07 17:19:00,
2015-07-07 10:24:00,68.4,57.2,29.84,South,181,0.0,2.2,70,0.00,,---,0.00,cosweather0.1e,2015-07-07 17:24:00,
2015-07-07 10:29:00,68.4,57.2,29.84,NW,326,2.2,2.2,70,0.00,,---,0.00,cosweather0.1e,2015-07-07 17:29:00,
2015-07-07 10:34:00,68.5,57.2,29.84,NW,307,0.0,0.0,70,0.00,,---,0.00,cosweather0.1e,2015-07-07 17:34:00,
2015-07-07 10:39:00,68.5,57.2,29.84,West,281,2.2,2.7,69,0.00,,---,0.00,cosweather0.1e,2015-07-07 17:39:00,
2015-07-07 10:44:00,68.7,57.2,29.84,SW,229,2.7,2.7,69,0.00,,---,0.00,cosweather0.1e,2015-07-07 17:44:00,
2015-07-07 10:49:00,68.9,59.0,29.84,SW,236,2.2,2.2,69,0.00,,---,0.00,cosweather0.1e,2015-07-07 17:49:00,
2015-07-07 10:54:00,69.1,59.0,29.84,NW,315,0.0,2.2,68,0.00,,---,0.00,cosweather0.1e,2015-07-07 17:54:00,
2015-07-07 10:59:00,69.3,59.0,29.84,NW,308,2.7,2.7,68,0.00,,---,0.00,cosweather0.1e,2015-07-07 17:59:00,
2015-07-07 11:04:00,69.4,59.0,29.84,West,273,2.7,3.1,68,0.00,,---,0.00,cosweather0.1e,2015-07-07 18:04:00,
2015-07-07 11:09:00,69.8,59.0,29.84,North,353,0.0,2.2,67,0.00,,---,0.00,cosweather0.1e,2015-07-07 18:09:00,
2015-07-07 11:14:00,70.2,59.0,29.84,South,188,2.7,3.1,67,0.00,,---,0.00,cosweather0.1e,2015-07-07 18:14:00,
2015-07-07 11:19:00,70.5,57.2,29.84,SW,219,2.2,0.0,66,0.00,,---,0.00,cosweather0.1e,2015-07-07 18:19:00,
2015-07-07 11:24:00,70.9,59.0,29.84,WSW,247,0.0,2.2,66,0.00,,---,0.00,cosweather0.1e,2015-07-07 18:24:00,
2015-07-07 11:29:00,71.4,59.0,29.84,WSW,246,0.0,3.1,66,0.00,,---,0.00,cosweather0.1e,2015-07-07 18:29:00,
2015-07-07 11:39:00,72.5,60.8,29.84,SW,222,2.2,3.1,64,0.00,,---,0.00,cosweather0.1e,2015-07-07 18:39:00,
2015-07-07 11:45:00,72.9,59.0,29.84,SSW,193,2.7,3.1,62,0.00,,---,0.00,cosweather0.1e,2015-07-07 18:45:00,
2015-07-07 11:50:00,73.0,59.0,29.84,SW,221,2.7,2.7,60,0.00,,---,0.00,cosweather0.1e,2015-07-07 18:50:00,
2015-07-07 11:55:00,73.4,59.0,29.84,NNW,330,2.7,2.7,60,0.00,,---,0.00,cosweather0.1e,2015-07-07 18:55:00,
2015-07-07 12:00:00,73.6,59.0,29.84,SSW,196,0.0,2.7,59,0.00,,---,0.00,cosweather0.1e,2015-07-07 19:00:00,
2015-07-07 12:05:00,73.6,57.2,29.84,South,186,0.0,2.2,58,0.00,,---,0.00,cosweather0.1e,2015-07-07 19:05:00,
2015-07-07 12:10:00,74.1,59.0,29.84,SW,225,2.2,0.0,59,0.00,,---,0.00,cosweather0.1e,2015-07-07 19:10:00,
2015-07-07 12:15:00,74.7,59.0,29.84,WNW,302,2.2,2.7,57,0.00,,---,0.00,cosweather0.1e,2015-07-07 19:15:00,
2015-07-07 12:20:00,75.2,57.2,29.84,SW,216,2.7,2.7,54,0.00,,---,0.00,cosweather0.1e,2015-07-07 19:20:00,
2015-07-07 12:25:00,75.6,57.2,29.84,NW,315,0.0,0.0,54,0.00,,---,0.00,cosweather0.1e,2015-07-07 19:25:00,
2015-07-07 12:30:00,75.9,57.2,29.84,WSW,249,0.0,4.0,54,0.00,,---,0.00,cosweather0.1e,2015-07-07 19:30:00,
2015-07-07 12:35:00,75.9,55.4,29.84,North,353,2.7,3.1,50,0.00,,---,0.00,cosweather0.1e,2015-07-07 19:35:00,
2015-07-07 12:40:00,76.1,57.2,29.84,NW,321,2.7,2.7,50,0.00,,---,0.00,cosweather0.1e,2015-07-07 19:40:00,
2015-07-07 12:45:00,76.5,57.2,29.80,NW,326,2.2,2.2,50,0.00,,---,0.00,cosweather0.1e,2015-07-07 19:45:00,
2015-07-07 12:50:00,76.6,57.2,29.80,SE,131,2.7,0.0,50,0.00,,---,0.00,cosweather0.1e,2015-07-07 19:50:00,
2015-07-07 12:55:00,76.8,57.2,29.80,West,259,0.0,2.7,50,0.00,,---,0.00,cosweather0.1e,2015-07-07 19:55:00,
2015-07-07 13:00:00,77.4,57.2,29.80,West,264,2.7,2.7,49,0.00,,---,0.00,cosweather0.1e,2015-07-07 20:00:00,
2015-07-07 13:05:00,77.7,55.4,29.80,NNW,333,3.6,4.0,48,0.00,,---,0.00,cosweather0.1e,2015-07-07 20:05:00,
2015-07-07 13:10:00,77.5,55.4,29.80,WNW,299,2.2,0.0,47,0.00,,---,0.00,cosweather0.1e,2015-07-07 20:10:00,
2015-07-07 13:15:00,77.5,55.4,29.80,NW,307,2.7,2.7,47,0.00,,---,0.00,cosweather0.1e,2015-07-07 20:15:00,
2015-07-07 13:20:00,77.7,55.4,29.80,NW,319,2.2,2.2,47,0.00,,---,0.00,cosweather0.1e,2015-07-07 20:20:00,
2015-07-07 13:25:00,77.7,55.4,29.80,WSW,247,2.7,0.0,47,0.00,,---,0.00,cosweather0.1e,2015-07-07 20:25:00,
2015-07-07 13:30:00,77.7,55.4,29.80,NW,320,2.2,3.1,47,0.00,,---,0.00,cosweather0.1e,2015-07-07 20:30:00,
2015-07-07 13:36:00,77.5,55.4,29.80,NW,315,3.6,5.4,46,0.00,,---,0.00,cosweather0.1e,2015-07-07 20:36:00,
2015-07-07 13:41:00,77.4,55.4,29.80,NNW,337,3.6,3.6,47,0.00,,---,0.00,cosweather0.1e,2015-07-07 20:41:00,
2015-07-07 13:46:00,77.2,55.4,29.80,NNW,328,3.1,4.0,46,0.00,,---,0.00,cosweather0.1e,2015-07-07 20:46:00,
2015-07-07 13:51:00,77.4,55.4,29.80,NW,311,2.7,3.1,47,0.00,,---,0.00,cosweather0.1e,2015-07-07 20:51:00,
2015-07-07 13:56:00,77.2,55.4,29.80,NNW,329,2.7,3.6,46,0.00,,---,0.00,cosweather0.1e,2015-07-07 20:56:00,
2015-07-07 14:01:00,77.0,55.4,29.76,NW,320,3.6,3.6,46,0.00,,---,0.00,cosweather0.1e,2015-07-07 21:01:00,
2015-07-07 14:06:00,76.5,55.4,29.76,NNW,334,3.1,6.3,47,0.00,,---,0.00,cosweather0.1e,2015-07-07 21:06:00,
2015-07-07 14:11:00,76.1,55.4,29.76,NNE,26,4.0,4.0,48,0.00,,---,0.00,cosweather0.1e,2015-07-07 21:11:00,